Flag for U.S.A. Weather past 2 weeks in Worcester, Massachusetts, U.S.A.

Now
38 °F

Clear.


Feels Like: 33 °F
Forecast: 36 / 58 °F
Wind: 6 mph from North

Location: Worcester Regional Airport


UV Index: 5 (Moderate)

Visibility: 10 mi


Pressure: 30.42 "Hg

Humidity: 53%

Dew point: 22 °F

Location of WorcesterLocation

Historic Weather in Worcester

°F

Worcester temperature yesterday

Maximum temperature yesterday: 58 °F (at 2:54 PM)
Minimum temperature yesterday: 34 °F (at 5:54 AM)
Average temperature yesterday: 46 °F

Past Weeks' High & Low Weather Summary

 TemperatureHumidityPressure
High71 °F (Apr 14, 11:54 AM)100% (Apr 5, 3:54 AM)30.78 "Hg (Apr 5, 3:54 AM)
Low24 °F (Apr 17, 5:54 AM)19% (Apr 10, 1:54 PM)29.32 "Hg (Apr 8, 4:54 PM)
Average46 °F61%30.05 "Hg
* Reported Apr 5 2:54 AM — Apr 20 2:54 AM, Worcester, Weather by CustomWeather, © 2014

Note: Actual official high and low records may vary slightly from our data, if they occured in-between our weather recording intervals... More about our weather records

Advertising

Historic Weather Conditions — Data for Previous 24 hours

 ConditionsComfort  
Time TempWeatherWind HumidityBarometerVisibility
2:54 AM
Apr 20
38 °FClear.6 mph53%30.42 "Hg10 mi
1:54 AM39 °FClear.8 mph50%30.42 "Hg10 mi
12:54 AM40 °FClear.6 mph51%30.42 "Hg10 mi
11:54 PM
Apr 19
41 °FClear.5 mph51%30.42 "Hg10 mi
10:54 PM43 °FClear.5 mph47%30.40 "Hg10 mi
9:54 PM45 °FClear.9 mph44%30.37 "Hg10 mi
8:54 PM48 °FClear.8 mph39%30.34 "Hg10 mi
7:54 PM51 °FSunny.10 mph38%30.31 "Hg10 mi
6:54 PM54 °FSunny.8 mph34%30.28 "Hg10 mi
5:54 PM56 °FSunny.9 mph32%30.26 "Hg10 mi
4:54 PM58 °FSunny.17 mph30%30.24 "Hg10 mi
3:54 PM57 °FSunny.13 mph31%30.23 "Hg10 mi
2:54 PM58 °FSunny.16 mph30%30.21 "Hg10 mi
1:54 PM56 °FSunny.12 mph33%30.21 "Hg10 mi
12:54 PM55 °FPassing clouds.15 mph35%30.22 "Hg10 mi
11:54 AM53 °FPassing clouds.12 mph39%30.23 "Hg10 mi
10:54 AM51 °FSunny.16 mph44%30.22 "Hg10 mi
9:54 AM48 °FSunny.16 mph54%30.22 "Hg10 mi
8:54 AM45 °FSunny.17 mph63%30.20 "Hg10 mi
7:54 AM41 °FSunny.16 mph65%30.19 "Hg10 mi
6:54 AM37 °FClear.13 mph73%30.19 "Hg10 mi
5:54 AM34 °FClear.12 mph82%30.18 "Hg10 mi
4:54 AM35 °FClear.9 mph75%30.18 "Hg10 mi
3:54 AM35 °FClear.13 mph78%30.19 "Hg10 mi
Weather by CustomWeather, © 2014

See weather overview